Location: Hewlett Bay Park
(40.6332°N, 73.6954°W)
Time: 06:41:59
(UTC+00:00)

Daily predictions for brighter satellites

Satellite Brightness Start Highest point End
(mag) Time Altitude Azimuth Time Altitude Azimuth Time Altitude Azimuth
Ariane Rocket 4.4 23:00:59 10° ESE 23:04:25 19° ENE 23:07:51 10° NNE
BREEZE-M DEB (TANK) 4.0 23:02:43 10° NW 23:05:06 29° NNE 23:09:50 10° E
STARLINK-1020 3.8 23:01:13 10° WSW 23:05:21 74° NW 23:09:29 10° NE
Cosmos 1862 3.8 23:02:22 10° SSW 23:06:19 67° W 23:10:18 10° N
Cosmos 2369 Rocket 2.2 23:01:09 10° SSW 23:06:47 81° ESE 23:12:30 10° NNE
NOSS 2-3 (D) 3.6 23:02:45 10° SSW 23:06:55 65° ESE 23:11:40 10° NE
STARLINK-1047 3.9 23:03:58 10° WSW 23:08:06 69° NW 23:12:17 10° NE
USA 229 DEB 4.2 23:02:27 10° SW 23:08:52 60° NW 23:15:39 10° NNE
USA 229 4.2 23:02:33 10° SW 23:08:58 61° NW 23:15:45 10° NNE
STARLINK-1052 3.9 23:06:14 10° WSW 23:10:20 68° NW 23:14:29 10° NE
SJ 16-02 3.3 23:11:42 10° NE 23:13:09 11° ENE 23:14:37 10° ENE
NOSS 3-1 (A) 3.4 23:10:39 10° SW 23:16:03 79° NW 23:22:19 10° NNE
Cosmos 1346 Rocket 3.3 23:12:38 10° SSE 23:16:19 37° E 23:19:59 10° NNE
STARLINK-1033 4.2 23:16:13 10° WSW 23:20:17 57° NW 23:24:23 10° NE
Aureole 2 Rocket 3.4 23:19:24 10° SW 23:21:51 36° WNW 23:24:23 10° N
STARLINK-1041 4.4 23:18:22 10° SSW 23:22:04 33° SE 23:25:29 12° ENE
H-2A R/B 3.4 23:20:55 10° ESE 23:24:48 21° ENE 23:28:45 10° NNE
YAOGAN 1 2.5 23:21:03 10° SSE 23:25:21 72° ENE 23:29:41 10° N
STARLINK-1038 4.3 23:23:13 10° SSW 23:27:01 36° SE 23:30:16 13° ENE
Cosmos 1633 Rocket 3.6 23:24:22 10° SSW 23:28:39 63° W 23:32:58 10° N
ARGOS 4.5 23:25:05 10° ESE 23:28:50 19° ENE 23:32:36 10° NNE
STARLINK-1024 4.4 23:26:18 10° WSW 23:30:18 48° NNW 23:34:20 10° NE
STARLINK-1046 4.2 23:28:04 10° SSW 23:31:56 40° SE 23:35:02 15° ENE
CSL-04 Rocket 3.7 23:26:33 10° SSE 23:32:04 75° ENE 23:37:33 10° N
Cosmos 2263 4.3 23:29:02 10° SSW 23:34:49 84° WNW 23:40:37 10° NNE
STARLINK-1039 4.0 23:32:58 10° SSW 23:36:54 44° SE 23:39:49 17° ENE
Cosmos 1933 Rocket 3.6 23:32:45 10° S 23:37:05 60° E 23:41:25 10° NNE
COSMOS 2487 3.5 23:36:08 10° N 23:39:03 25° ENE 23:40:21 20° E
Cosmos 405 4.2 23:36:26 10° NNE 23:39:15 22° ENE 23:40:12 20° E
GPS 2-04 Rocket1 3.8 23:35:41 10° SW 23:39:32 35° S 23:42:11 17° ESE
CRYOSAT 2 4.3 23:35:12 10° SSE 23:40:03 70° E 23:44:57 10° N
NOSS 2-3 (C) 4.2 23:36:52 10° SW 23:41:05 58° NW 23:46:00 10° NNE
STARLINK-1045 3.9 23:37:53 10° SSW 23:41:52 49° SE 23:44:36 19° ENE
HJ-1C 3.6 23:42:45 10° SSE 23:45:55 44° ENE 23:49:05 10° N
Cosmos 1340 3.0 23:42:57 10° SSW 23:46:41 67° WNW 23:50:26 10° N
STARLINK-1050 3.7 23:42:51 10° SW 23:46:53 56° SE 23:49:30 21° ENE
Lacrosse 5 rocket 4.1 23:48:01 10° N 23:48:25 10° N 23:48:50 10° NNE
CSL-04 Debris 4.4 23:45:11 10° S 23:50:37 75° WSW 23:56:08 10° NNW
Okean 1 4.1 23:47:13 10° NNE 23:50:43 28° ENE 23:51:56 24° ESE
STARLINK-1055 3.6 23:47:46 10° SW 23:51:50 62° SE 23:54:15 23° ENE
Cosmos 1464 Rocket 4.1 23:45:54 10° SSE 23:52:01 52° E 23:58:11 10° NNE
